SCP
0 0 0 0 0 0 0 0 0 0 0 0 0 0 0 0 0 0 0 0 0 0 0 0 0 0 0 0 0 0 0 0 0 0 0 0 0 0 0 0 0 0 0
0 0 0 0 0 0 0 0 0 0 0 0 0 0 0 0 0 0 0 0 0 0 0 0 0 0 0 0 0 0 0 0 0 0 0 0 0 0 0 0 0 0 0
0 0 0 0 0 0 0 0 0 0 0 0 0 0 0 0 0 0 0 0 0 0 0 0 0 0 0 0 0 0 0 0 0 0 0 0 0 0 0 0 0 0 0
0 0 0 0 0 0 0 0 0 0 0 0 0 0 0 0 0 0 0 0 0 0 0 0 0 0 0 0 0 0 0 0 0 0 0 0 0 0 0 0 0 0 0
0 0 0 0 0 0 0 0 0 0 0 0 0 0 0 0 0 0 0 0 0 0 0 0 0 0 0 0 0 0 0 0 0 0 0 0 0 0 0 0 0 0 0
0 0 0 0 0 0 0 0 0 0 0 0 0 0 0 0 0 0 0 0 0 0 0 0 0 0 0 0 0 0 0 0 0 0 0 0 0 0 0 0 0 0 0
0 0 0 0 0 0 0 0 0 0 0 0 0 0 0 0 0 0 0 0 0 0 0 0 0 0 0 0 0 0 0 0 0 0 0 0 0 0 0 0 0 0 0
0 0 0 0 0 0 0 0 0 0 0 0 0 0 0 0 0 0 0 0 0 0 0 0 0 0 0 0 0 0 0 0 0 0 0 0 0 0 0 0 0 0 0
0 0 0 0 0 0 0 0 0 0 0 0 0 0 0 0 0 0 0 0 0 0 0 0 0 0 0 0 0 0 0 0 0 0 0 0 0 0 0 0 0 0 0
0 0 0 0 0 0 0 0 0 0 0 0 0 0 0 0 0 0 0 0 0 0 0 0 0 0 0 0 0 0 0 0 0 0 0 0 0 0 0 0 0 0 0
0 0 0 0 0 0 0 0 0 0 0 0 0 0 0 0 0 0 0 0 0 0 0 0 0 0 0 0 0 0 0 0 0 0 0 0 0 0 0 0 0 0 0
0 0 0 0 0 0 0 0 0 0 0 0 0 0 0 0 0 0 0 0 0 0 0 0 0 0 0 0 0 0 0 0 0 0 0 0 0 0 0 0 0 0 0
0 0 0 0 0 0 0 0 0 0 0 0 0 0 0 0 0 0 0 0 0 0 0 0 0 0 0 0 0 0 0 0 0 0 0 0 0 0 0 0 0 0 0
0 0 0 0 0 0 0 0 0 0 0 0 0 0 0 0 0 0 0 0 0 0 0 0 0 0 0 0 0 0 0 0 0 0 0 0 0 0 0 0 0 0 0
0 0 0 0 0 0 0 0 0 0 0 0 0 0 0 0 0 0 0 0 0 0 0 0 0 0 0 0 0 0 0 0 0 0 0 0 0 0 0 0 0 0 0
0 0 0 0 0 0 0 0 0 0 0 0 0 0 0 0 0 0 0 0 0 0 0 0 0 0 0 -0 -0 0 0 0 0 0 0 0 0 0 0 0 0 0 0
0 0 0 0 0 0 0 0 0 0 0 0 0 0 0 0 0 0 0 0 0 0 0 0 0 0 0 -0 -0 0 0 0 0 0 0 0 0 0 0 0 0 0 0
0 0 0 0 0 0 0 0 0 0 0 0 0 0 0 0 0 0 0 0 0 0 0 0 0 0 0 -0 -0 -0 -0 0 0 0 0 0 0 0 0 0 0 0 0
0 0 0 0 0 0 0 0 0 0 0 0 0 0 0 0 0 0 0 0 0 0 0 0 0 0 0 0 -0 -0 -0 0 0 0 0 0 0 0 0 0 0 0 0
0 0 0 0 0 0 0 0 0 0 0 0 0 0 0 0 0 0 0 0 0 0 0 0 0 0 0 0 0 0 0 0 0 0 0 0 0 0 0 0 0 0 0
0 0 0 0 0 0 0 0 0 0 0 0 0 0 0 0 0 0 0 0 0 0 0 0 0 0 0 0 0 0 0 0 0 0 0 0 0 0 0 0 0 0 0
0 0 0 0 0 0 0 0 0 0 0 0 0 0 0 0 0 0 0 0 0 0 0 0 0 0 0 0 0 0 0 0 0 0 0 0 0 0 0 0 0 0 0
0 0 0 0 0 0 0 0 0 0 0 0 0 0 0 0 0 0 0 0 0 0 0 0 0 0 0 0 -0 -0 -0 0 0 0 0 0 0 0 0 0 0 0 0
0 0 0 0 0 0 0 0 0 0 0 0 0 0 0 0 0 0 0 0 0 0 0 0 0 0 0 0 -0 -0 -0 0 0 0 0 0 0 0 0 0 0 0 0
0 0 0 0 0 0 0 0 0 0 0 0 0 0 0 0 0 0 0 0 0 0 0 0 0 0 0 0 0 0 0 0 0 0 0 0 0 0 0 0 0 0 0
0 0 0 0 0 0 0 0 0 0 0 0 0 0 0 0 0 0 0 0 0 0 0 0 0 0 0 0 0 0 0 0 0 0 0 0 0 0 0 0 0 0 0
Wind_Speed
1 1 2 2 2 3 3 3 3 2 2 2 2 2 2 2 2 2 2 2 3 3 3 3 4 3 3 3 3 3 4 5 8 6 3 3 4 5 5 5 5 5 6
1 1 1 1 1 2 2 2 2 2 2 2 2 2 2 2 2 2 2 2 3 3 3 3 4 3 3 3 2 3 3 4 6 9 5 4 5 5 5 6 5 5 5
1 2 1 1 1 1 2 2 2 2 1 1 1 2 2 2 2 2 3 3 3 3 3 3 3 3 3 3 3 3 3 4 4 6 7 4 4 3 5 5 5 5 5
2 2 2 1 1 1 1 1 1 2 2 1 1 2 2 2 2 2 2 2 2 2 2 2 2 2 3 3 3 3 3 4 4 5 6 5 4 4 3 5 6 4 5
2 2 2 1 1 1 1 0 0 1 1 1 1 1 1 1 1 1 2 2 2 2 2 1 1 1 2 2 2 3 3 3 4 4 5 5 4 4 4 4 6 7 6
3 3 2 2 1 1 1 1 1 1 1 1 1 2 1 1 1 1 1 1 1 1 1 1 0 0 2 3 3 3 3 4 4 5 4 5 6 5 5 5 6 6 7
2 2 1 1 2 2 2 2 2 2 1 1 1 2 1 1 1 2 1 1 1 1 1 1 1 1 1 2 3 3 3 4 5 5 6 6 6 5 6 6 6 6 8
2 2 1 1 2 1 1 2 2 2 2 2 2 2 1 1 2 2 2 2 1 1 1 0 1 1 2 3 2 3 3 3 4 3 4 5 5 5 5 6 7 7 7
2 2 2 2 2 2 3 2 2 1 1 1 1 2 2 1 2 2 3 1 1 1 1 1 1 1 4 4 3 3 4 4 5 6 6 7 8 9 7 4 4 5 6
4 3 2 2 3 3 3 2 1 2 2 2 2 1 1 1 2 3 3 1 1 1 1 1 2 3 4 5 3 2 3 4 4 5 5 6 6 6 7 4 3 4 5
2 2 2 2 3 2 2 1 1 2 2 2 2 1 1 1 1 2 3 1 1 0 1 1 2 5 5 5 4 3 4 4 3 4 4 4 4 4 4 4 3 4 5
1 1 2 2 2 1 2 1 2 2 2 2 2 1 1 1 1 1 2 2 2 0 0 1 2 4 4 4 4 5 6 4 2 2 3 3 4 4 4 5 5 5 5
1 1 2 1 1 1 2 2 2 2 2 2 2 2 1 0 1 2 2 2 2 1 1 2 3 4 4 3 5 5 4 2 2 2 3 4 4 5 5 5 5 5 6
1 1 1 1 1 1 1 2 2 2 2 2 2 2 1 1 0 1 0 1 1 1 1 2 2 3 3 3 3 3 2 2 3 3 3 4 4 4 4 4 5 5 5
1 1 1 1 1 1 1 1 2 2 3 3 3 3 2 2 1 1 1 0 0 0 1 1 1 1 1 2 2 2 2 3 3 3 3 4 4 4 4 4 4 4 4
1 1 1 1 1 1 1 0 0 1 1 1 1 1 1 1 1 1 1 1 1 2 2 1 0 1 1 1 2 2 3 3 3 3 3 4 4 4 5 4 4 4 5
2 2 1 1 2 2 2 2 1 0 1 1 1 0 0 1 1 1 0 1 1 2 1 0 0 1 2 2 2 2 3 3 3 3 4 4 4 4 4 5 4 4 5
2 2 1 1 1 2 2 2 1 2 1 1 1 1 1 1 1 1 1 2 1 1 0 1 1 1 2 2 2 2 3 3 3 3 3 4 3 4 4 5 5 5 6
1 1 1 1 1 1 1 1 1 1 1 1 1 1 2 1 1 2 2 1 1 1 1 1 2 2 2 2 2 2 3 3 3 3 3 3 3 3 4 4 5 6 6
1 1 1 0 0 1 1 1 1 1 1 1 1 1 1 0 0 1 1 0 1 1 2 2 2 2 2 2 2 2 2 3 3 3 3 3 3 3 4 5 5 5 5
1 1 1 0 0 1 1 1 1 1 1 1 2 2 2 1 1 1 1 1 1 2 2 2 3 3 3 2 2 3 3 3 3 3 3 4 3 3 4 4 5 5 5
1 1 0 0 0 1 1 1 1 1 2 2 1 2 2 1 1 1 2 2 2 2 3 3 3 3 3 3 3 3 3 4 4 3 4 4 4 4 4 4 5 5 5
0 0 0 0 0 0 1 1 1 1 2 2 2 2 1 1 2 2 2 3 2 3 2 2 3 3 3 3 3 4 4 5 4 4 4 4 4 4 4 5 5 6 6
0 0 0 0 0 1 1 1 1 2 2 2 2 2 2 2 2 3 3 3 3 3 3 3 3 5 6 4 4 4 4 5 5 5 6 6 5 5 5 5 6 6 6
0 0 0 1 1 1 1 1 1 2 2 2 2 3 3 2 3 3 3 3 4 4 4 4 4 4 6 7 6 6 7 9 7 5 5 5 6 6 6 6 6 6 6
0 0 0 1 1 1 1 2 2 2 2 3 2 3 3 3 3 3 3 3 4 4 5 4 5 6 7 6 7 9 9 9 9 8 6 5 6 6 6 5 6 6 6
Wind_Direction
151 166 162 168 170 167 168 180 190 189 181 188 195 199 207 217 219 217 227 229 228 240 244 245 255 259 259 260 256 254 254 255 268 278 265 278 285 297 305 300 298 299 303
171 152 154 163 164 167 181 194 187 185 191 195 188 186 203 214 206 203 216 225 232 241 247 247 258 261 258 263 262 264 265 263 268 280 286 282 278 288 295 298 306 305 299
169 159 153 154 166 190 197 193 183 179 187 193 186 197 211 213 206 210 211 218 228 239 245 248 255 254 260 264 265 266 270 275 268 273 282 283 280 296 305 302 299 295 298
174 166 170 185 184 186 192 186 182 176 177 188 203 216 222 217 214 214 211 214 222 234 236 235 240 243 254 267 270 274 281 282 279 276 280 289 291 306 312 306 309 306 301
185 183 194 188 154 133 137 155 187 178 173 175 176 204 217 203 202 210 217 215 222 233 236 235 241 262 276 276 279 279 282 279 284 284 286 293 297 314 312 309 303 309 299
193 205 195 178 168 174 185 175 173 169 153 150 164 172 174 180 92 119 157 187 204 217 244 267 293 325 341 333 314 305 295 284 284 283 284 287 292 299 306 307 305 309 303
206 205 193 190 197 204 197 180 185 184 157 159 157 152 154 118 94 92 81 153 159 192 228 276 323 346 319 305 314 321 317 306 289 276 278 282 292 299 304 303 298 293 285
200 201 199 200 215 214 203 206 204 185 175 171 162 157 149 103 89 93 99 115 112 94 57 2 329 336 342 338 322 322 329 339 325 307 286 292 300 306 300 294 294 293 284
215 217 211 202 208 205 207 214 213 189 172 158 148 144 146 109 76 83 86 105 97 64 42 33 13 334 349 357 347 335 335 335 349 344 330 322 322 324 321 315 309 307 297
234 230 221 205 204 212 216 209 203 183 173 150 129 116 129 115 83 91 93 111 98 48 23 25 14 358 355 1 349 326 318 324 333 337 338 333 327 322 325 317 306 299 296
262 241 225 214 210 209 207 201 179 165 149 144 134 108 98 87 86 84 81 95 112 79 7 351 342 350 355 357 354 334 325 329 324 326 324 321 321 319 321 320 309 290 285
274 238 231 222 209 191 177 177 163 160 152 147 137 127 66 53 61 58 55 51 43 73 314 320 321 339 346 350 354 356 2 357 332 324 319 318 321 323 321 317 312 303 290
255 234 239 237 216 185 180 183 175 170 166 172 174 186 201 23 21 41 36 38 21 2 326 331 337 342 358 6 6 13 12 358 341 328 317 317 319 316 319 318 316 311 307
250 258 239 211 210 190 189 186 190 188 180 183 192 201 211 243 296 16 17 23 14 360 6 358 359 9 25 22 10 10 5 353 338 320 311 310 316 320 321 320 318 323 318
253 242 242 226 200 196 213 216 208 215 198 195 201 193 198 232 253 312 323 305 254 102 66 20 359 9 19 6 355 352 348 347 341 328 318 316 319 319 316 320 317 320 312
241 232 228 218 202 194 192 292 228 182 178 184 170 181 253 274 292 306 309 341 39 106 102 146 327 332 320 321 325 327 328 328 328 323 319 315 314 315 316 318 318 315 310
250 247 231 215 201 195 193 194 214 22 115 118 118 122 317 301 275 299 344 63 82 95 89 137 253 288 300 306 307 307 309 315 319 316 313 310 309 309 310 311 314 313 310
277 264 245 233 223 209 205 208 205 204 233 304 327 7 21 8 348 11 55 80 61 54 63 222 255 273 283 290 294 298 301 309 309 305 302 300 300 301 303 304 304 306 307
283 270 266 266 269 246 222 204 198 204 211 237 318 335 356 358 30 39 56 83 206 255 275 266 259 262 270 275 277 282 285 287 291 293 293 291 290 292 294 296 298 302 303
301 297 293 248 260 247 223 210 210 213 219 220 232 258 296 40 24 339 18 5 279 275 275 271 270 265 264 266 267 271 279 277 280 281 284 284 281 279 284 289 292 295 296
296 295 329 334 244 248 228 218 218 212 221 240 259 260 250 213 227 243 257 258 254 261 267 270 270 266 259 256 255 258 264 270 273 274 276 277 275 277 280 282 285 287 292
273 281 279 270 296 295 277 243 223 222 222 237 277 291 290 315 273 267 268 269 266 258 252 255 261 255 245 243 244 251 259 263 264 268 273 274 272 274 277 280 284 289 291
246 270 307 309 278 276 302 292 251 236 238 245 256 265 265 261 262 266 272 276 273 271 266 257 260 264 254 246 239 237 247 255 257 256 266 273 270 267 268 272 276 281 285
203 213 234 261 264 252 253 270 278 268 252 252 255 254 254 255 261 269 274 275 273 270 265 260 256 258 262 263 256 249 248 255 257 251 251 256 262 263 263 265 269 272 278
196 226 236 244 251 257 266 275 279 282 278 267 260 260 262 262 265 268 271 272 272 271 272 267 260 258 260 264 265 263 267 271 267 255 250 249 254 257 261 265 269 277 282
287 262 261 259 257 260 260 267 275 280 281 280 274 272 271 269 267 269 272 271 270 271 273 269 262 263 265 267 268 270 270 270 265 256 246 245 250 258 263 268 270 274 278